Zurück zum Katalog

STARLINK-35958

AktivKommunikationVLEO
NORAD 66822·PAYLOAD·🇺🇸 United States

Gestartet Dec 2, 2025 von Vandenberg Space Force Base

Loading…

Nächste Überflüge (nächste 24 Stunden)

TLE

AktuellSource: CelesTrak SupGP

Epoche: Sep 15, 2026, 02:48 UTC

1 66822C 25280B   26258.11715278 -.00020943  00000+0 -17552-2 0  2585
2 66822  70.0009 216.8285 0003448 266.7491 343.6515 14.98338799    17

Verfolge STARLINK-35958 in Echtzeit mit AllMySat

Download on the App Store